| time (UTC) | temp F | wind direction | speed knots | gust knots | rain 1hr in | rain 24hr in | rain mn in | humidity % | barometer mb |
| 20260506223001 | 68 | 333 | 6.1 | 10.4 | 0.00 | 0.00 | 0.00 | 20 | 1009.2 |
| 20260506221558 | 67 | 265 | 3.5 | 8.7 | 0.00 | 0.00 | 0.00 | 21 | 1009.6 |
| 20260506220057 | 67 | 291 | 4.3 | 8.7 | 0.00 | 0.00 | 0.00 | 23 | 1009.9 |
| 20260506214608 | 67 | 253 | 2.6 | 7.8 | 0.00 | 0.00 | 0.00 | 21 | 1010.2 |
| 20260506213049 | 65 | 227 | 1.7 | 7.0 | 0.00 | 0.00 | 0.00 | 22 | 1010.4 |
| 20260506211547 | 64 | 321 | 3.5 | 9.6 | 0.00 | 0.00 | 0.00 | 21 | 1010.7 |
| 20260506210049 | 64 | 262 | 6.1 | 10.4 | 0.00 | 0.00 | 0.00 | 22 | 1010.9 |
| 20260506204543 | 63 | 290 | 4.3 | 7.0 | 0.00 | 0.00 | 0.00 | 22 | 1011.3 |
| 20260506203045 | 62 | 232 | 4.3 | 9.6 | 0.00 | 0.00 | 0.00 | 22 | 1011.7 |
| 20260506201537 | 63 | 232 | 4.3 | 8.7 | 0.00 | 0.00 | 0.00 | 22 | 1012.0 |
| 20260506200035 | 61 | 229 | 4.3 | 10.4 | 0.00 | 0.00 | 0.00 | 22 | 1012.3 |
| 20260506194532 | 60 | 234 | 1.7 | 7.8 | 0.00 | 0.00 | 0.00 | 22 | 1012.6 |
| 20260506193029 | 59 | 188 | 4.3 | 12.2 | 0.00 | 0.00 | 0.00 | 24 | 1012.8 |
| 20260506191533 | 59 | 138 | 0.9 | 13.0 | 0.00 | 0.00 | 0.00 | 25 | 1013.0 |
| 20260506190024 | 59 | 234 | 4.3 | 11.3 | 0.00 | 0.00 | 0.00 | 24 | 1013.6 |
| 20260506184526 | 58 | 222 | 5.2 | 11.3 | 0.00 | 0.00 | 0.00 | 24 | 1013.9 |
| 20260506183016 | 56 | 207 | 5.2 | 11.3 | 0.00 | 0.00 | 0.00 | 24 | 1014.2 |
| 20260506181514 | 56 | 218 | 7.8 | 14.8 | 0.00 | 0.00 | 0.00 | 24 | 1014.4 |
| 20260506180017 | 54 | 185 | 6.1 | 13.9 | 0.00 | 0.00 | 0.00 | 28 | 1014.7 |
| 20260506174507 | 54 | 166 | 3.5 | 8.7 | 0.00 | 0.00 | 0.00 | 29 | 1015.0 |
| 20260506173005 | 53 | 192 | 4.3 | 13.9 | 0.00 | 0.00 | 0.00 | 28 | 1015.4 |
| 20260506171506 | 53 | 192 | 6.1 | 11.3 | 0.00 | 0.00 | 0.00 | 32 | 1015.8 |
| 20260506164601 | 50 | 202 | 7.0 | 14.8 | 0.00 | 0.00 | 0.00 | 36 | 1016.1 |
| 20260506163058 | 50 | 234 | 7.0 | 12.2 | 0.00 | 0.00 | 0.00 | 39 | 1016.4 |
| 20260506161553 | 48 | 196 | 7.0 | 11.3 | 0.00 | 0.00 | 0.00 | 43 | 1016.8 |
| 20260506160044 | 47 | 235 | 6.1 | 12.2 | 0.00 | 0.00 | 0.00 | 45 | 1016.9 |
| 20260506154547 | 46 | 226 | 6.1 | 11.3 | 0.00 | 0.00 | 0.00 | 47 | 1017.3 |
| 20260506153038 | 45 | 223 | 6.1 | 9.6 | 0.00 | 0.00 | 0.00 | 46 | 1017.6 |
| 20260506151537 | 43 | 193 | 4.3 | 8.7 | 0.00 | 0.00 | 0.00 | 47 | 1017.8 |
| 20260506150029 | 41 | 221 | 5.2 | 7.8 | 0.00 | 0.00 | 0.00 | 45 | 1018.2 |
| 20260506144527 | 41 | 192 | 5.2 | 8.7 | 0.00 | 0.00 | 0.00 | 46 | 1018.3 |
| 20260506143023 | 40 | 206 | 4.3 | 8.7 | 0.00 | 0.00 | 0.00 | 47 | 1018.3 |
| 20260506141519 | 38 | 204 | 4.3 | 6.1 | 0.00 | 0.00 | 0.00 | 48 | 1018.4 |
| 20260506140021 | 35 | 209 | 3.5 | 6.1 | 0.00 | 0.00 | 0.00 | 52 | 1018.6 |
| 20260506134513 | 34 | 207 | 4.3 | 7.0 | 0.00 | 0.00 | 0.00 | 53 | 1018.6 |
| 20260506133007 | 33 | 196 | 2.6 | 6.1 | 0.00 | 0.00 | 0.00 | 56 | 1018.6 |
| 20260506131510 | 31 | 227 | 3.5 | 7.0 | 0.00 | 0.00 | 0.00 | 58 | 1018.7 |
| 20260506124558 | 27 | 286 | 0.9 | 4.3 | 0.00 | 0.00 | 0.00 | 65 | 1018.7 |
| 20260506123057 | 25 | 263 | 0.9 | 3.5 | 0.00 | 0.00 | 0.00 | 66 | 1018.8 |
| 20260506121555 | 24 | 279 | 0.0 | 0.9 | 0.00 | 0.00 | 0.00 | 68 | 1018.9 |
| 20260506120054 | 23 | 279 | 0.0 | 1.7 | 0.00 | 0.00 | 0.00 | 68 | 1018.9 |
| 20260506114558 | 22 | 279 | 0.0 | 1.7 | 0.00 | 0.00 | 0.00 | 67 | 1019.1 |
| 20260506113053 | 23 | 283 | 0.9 | 2.6 | 0.00 | 0.00 | 0.00 | 67 | 1019.2 |
| 20260506111551 | 23 | 284 | 1.7 | 2.6 | 0.00 | 0.00 | 0.00 | 67 | 1019.3 |
| 20260506110047 | 23 | 277 | 0.9 | 2.6 | 0.00 | 0.00 | 0.00 | 67 | 1019.4 |
| 20260506104554 | 22 | 277 | 0.9 | 3.5 | 0.00 | 0.00 | 0.00 | 67 | 1019.5 |
| 20260506103043 | 23 | 277 | 0.9 | 2.6 | 0.00 | 0.00 | 0.00 | 65 | 1019.5 |
| 20260506101549 | 22 | 281 | 1.7 | 2.6 | 0.00 | 0.00 | 0.00 | 65 | 1019.6 |
| 20260506100041 | 22 | 277 | 0.9 | 2.6 | 0.00 | 0.00 | 0.00 | 67 | 1019.8 |
| 20260506094539 | 21 | 257 | 0.0 | 2.6 | 0.00 | 0.00 | 0.00 | 66 | 1019.9 |
| 20260506093036 | 22 | 293 | 0.9 | 3.5 | 0.00 | 0.00 | 0.00 | 65 | 1020.0 |
| 20260506091535 | 22 | 276 | 1.7 | 4.3 | 0.00 | 0.00 | 0.00 | 66 | 1020.1 |
| 20260506090035 | 21 | 303 | 0.0 | 3.5 | 0.00 | 0.00 | 0.00 | 65 | 1020.1 |
| 20260506084538 | 22 | 290 | 0.0 | 3.5 | 0.00 | 0.00 | 0.00 | 64 | 1020.1 |
| 20260506083032 | 23 | 287 | 0.9 | 3.5 | 0.00 | 0.00 | 0.00 | 64 | 1020.1 |
| 20260506081528 | 23 | 287 | 0.9 | 1.7 | 0.00 | 0.00 | 0.00 | 65 | 1020.2 |
| 20260506073019 | 24 | 53 | 0.0 | 0.9 | 0.00 | 0.00 | 0.00 | 63 | 1020.5 |
| 20260506071518 | 23 | 53 | 0.9 | 2.6 | 0.00 | 0.00 | 0.00 | 63 | 1020.6 |
| 20260506061504 | 27 | 53 | 0.9 | 2.6 | 0.00 | 0.00 | 0.00 | 56 | 1020.7 |
| 20260506060104 | 27 | 53 | 0.0 | 2.6 | 0.00 | 0.00 | 0.00 | 57 | 1020.6 |
| 20260506044623 | 37 | 60 | 0.9 | 2.6 | 0.00 | 0.00 | 0.00 | 44 | 1020.6 |
| 20260506043053 | 37 | 5 | 0.9 | 3.5 | 0.00 | 0.00 | 0.00 | 43 | 1020.7 |
| 20260506041553 | 38 | 5 | 0.9 | 4.3 | 0.00 | 0.00 | 0.00 | 42 | 1020.7 |
| 20260506040052 | 38 | 348 | 3.5 | 5.2 | 0.00 | 0.00 | 0.00 | 42 | 1020.7 |
| 20260506034552 | 39 | 15 | 2.6 | 5.2 | 0.00 | 0.00 | 0.00 | 41 | 1020.7 |
| 20260506033052 | 39 | 350 | 1.7 | 4.3 | 0.00 | 0.00 | 0.00 | 41 | 1020.6 |
| 20260506031549 | 39 | 346 | 1.7 | 4.3 | 0.00 | 0.00 | 0.00 | 40 | 1020.5 |
| 20260506030049 | 41 | 349 | 2.6 | 5.2 | 0.00 | 0.00 | 0.00 | 38 | 1020.3 |
| 20260506024549 | 42 | 13 | 2.6 | 5.2 | 0.00 | 0.00 | 0.00 | 37 | 1020.1 |
| 20260506023149 | 44 | 360 | 1.7 | 7.0 | 0.00 | 0.00 | 0.00 | 35 | 1020.1 |
| 20260506021555 | 45 | 360 | 3.5 | 7.8 | 0.00 | 0.00 | 0.00 | 33 | 1020.0 |
| 20260506020048 | 46 | 360 | 5.2 | 12.2 | 0.00 | 0.00 | 0.00 | 32 | 1019.8 |
| 20260506014546 | 46 | 5 | 7.8 | 13.0 | 0.00 | 0.00 | 0.00 | 32 | 1019.8 |
| 20260506013045 | 47 | 334 | 5.2 | 10.4 | 0.00 | 0.00 | 0.00 | 31 | 1019.8 |
| 20260506011544 | 47 | 5 | 7.0 | 13.9 | 0.00 | 0.00 | 0.00 | 31 | 1019.7 |
| 20260506010054 | 48 | 12 | 7.0 | 14.8 | 0.00 | 0.00 | 0.00 | 29 | 1019.5 |
| 20260506004549 | 48 | 355 | 7.8 | 13.0 | 0.00 | 0.00 | 0.00 | 30 | 1019.6 |
| 20260506003043 | 48 | 15 | 6.1 | 15.6 | 0.00 | 0.00 | 0.00 | 30 | 1019.6 |
| 20260506001546 | 49 | 355 | 5.2 | 17.4 | 0.00 | 0.00 | 0.00 | 32 | 1019.5 |
| 20260506000042 | 48 | 325 | 7.8 | 14.8 | 0.00 | 0.00 | 0.00 | 31 | 1019.4 |
| 20260505234601 | 48 | 355 | 8.7 | 15.6 | 0.00 | 0.00 | 0.00 | 31 | 1019.5 |
| 20260505233042 | 49 | 336 | 8.7 | 13.0 | 0.00 | 0.00 | 0.00 | 30 | 1019.4 |
| 20260505231539 | 49 | 331 | 6.1 | 13.9 | 0.00 | 0.00 | 0.00 | 31 | 1019.3 |
| 20260505230039 | 48 | 32 | 7.8 | 16.5 | 0.00 | 0.00 | 0.00 | 32 | 1019.3 |
| 20260505224537 | 49 | 319 | 10.4 | 16.5 | 0.00 | 0.00 | 0.00 | 31 | 1019.3 |